608  
ASUS43 KMPX 252010  
RWRMN  
WEATHER ROUNDUP FOR MINNESOTA  
NATIONAL WEATHER SERVICE TWIN CITIES/CHANHASSEN MN  
200 PM CST SUN JAN 25 2015  
 
NOTE: "FAIR" INDICATES FEW OR NO CLOUDS BELOW 12,000 FEET WITH NO  
SIGNIFICANT WEATHER AND/OR S TO VISIBILITY
. N/A MEANS  
CURRENT SKY AND/OR WEATHER CONDITIONS ARE NOT AVAILABLE.  
 
MNZ060>063-068>070-252100-  
TWIN CITIES METRO  
 
CITY SKY/WX TMP DP RH WIND PRES REMARKS
 
TWIN CITIES SUNNY 26 13 57 NE8 30.03S WCI 18  
ST PAUL MOSUNNY 25 12 58 E8 30.05F WCI 16  
CRYSTAL SUNNY 26 12 55 E5 30.02F WCI 20  
BLAINE SUNNY 27 14 59 NE9 30.02F WCI 17  
LAKEVILLE CLOUDY 21 16 79 NE7 30.02F WCI 13  
EDEN PRAIRIE SUNNY 26 13 57 NE6 30.01S WCI 19  
SOUTH ST PAUL CLOUDY 25 15 67 NE5 30.04F WCI 19  
LAKE ELMO FAIR 25 14 63 NE6 30.04F WCI 18  

 
MNZ001>005-007-008-013>017-022>024-027-028-252100-  
NORTHWEST MINNESOTA  
 
CITY SKY/WX TMP DP RH WIND PRES REMARKS
 
BEMIDJI PTSUNNY 26 17 67 SW5 29.98F WCI 20  
HALLOCK CLOUDY 19 10 68 S9 29.99F WCI 9  
ROSEAU CLOUDY 16 7 67 S5 30.00F WCI 9  
WARROAD CLOUDY 14 5 67 S6 30.00F WCI 5  
THIEF RVR FALL CLOUDY 19 10 68 CALM 30.01S  
CROOKSTON SUNNY 21 12 68 CALM 30.04S  
FOSSTON MOSUNNY 28 16 59 CALM 29.99F  
DETROIT LAKES SUNNY 30 21 69 CALM 30.00F  
MOORHEAD MOSUNNY 25 19 80 CALM 30.04F  
PARK RAPIDS CLOUDY 27 18 69 SW5 29.98F WCI 22  
MAHNOMEN FAIR 24 17 73 SW6 29.99F WCI 17  

 
MNZ006-009>011-018-025>026-252100-  
NORTH CENTRAL MINNESOTA  
 
CITY SKY/WX TMP DP RH WIND PRES REMARKS
 
BAUDETTE CLOUDY 16 6 65 S7 29.98F WCI 6  
FLAG ISLAND CLOUDY 10 3 72 S9 29.99S WCI -2  
INTL FALLS CLOUDY 14 4 64 VRB3 30.00F  
WASKISH CLOUDY 19 10 68 CALM 30.00F  
BIG FORK CLOUDY 25 16 68 S6 30.00F WCI 18  
LONGVILLE SUNNY 27 14 59 SE5 30.01F WCI 21  
GRAND RAPIDS PTSUNNY 21 10 63 S9 30.01S WCI 11  
CRANE LAKE MOSUNNY 18 7 62 S5 30.04F WCI 11  
ORR PTSUNNY 19 7 58 S6 29.99F WCI 11  
COOK MOSUNNY 21 10 63 S9 30.01F WCI 11  
WALKER CLOUDY 25 16 68 SW5 29.99F WCI 19  

 
MNZ012-019>021-037-252100-  
NORTHEAST MINNESOTA  
 
CITY SKY/WX TMP DP RH WIND PRES REMARKS
 
DULUTH FLURRIES 19 13 77 E14 30.01S WCI 6  
ELY PTSUNNY 18 7 62 S6 30.02F WCI 9  
HIBBING PTSUNNY 21 11 65 VRB6 30.01F WCI 13  
EVELETH PTSUNNY 21 12 68 SE6 30.03S WCI 14  
DULUTH HARBOR CLOUDY 25 18 74 CALM 30.09R  
TWO HARBORS LGT SNOW 21 16 79 NE6 30.04S WCI 14  
SILVER BAY LGT SNOW 18 12 79 N5 30.05F WCI 11  
GRAND MARAIS N/A 16 4 59 E5 30.12F WCI 9  
G MARAIS ARPRT PTSUNNY 10 -8 44 CALM 30.01F  

 
MNZ029>031-032-039>041-046>048-054>057-064-252100-  
WEST CENTRAL MINNESOTA  
 
CITY SKY/WX TMP DP RH WIND PRES REMARKS
 
FERGUS FALLS SUNNY 25 21 86 W8 30.05S WCI 16  
WHEATON SUNNY 25 19 80 W7 30.06S WCI 17  
MORRIS MOSUNNY 28 25 86 NW5 30.01S WCI 23  
ALEXANDRIA CLOUDY 26 20 77 SE6 30.00F WCI 19  
ELBOW LAKE FAIR 25 22 87 NW5 30.01S WCI 19  
WADENA CLOUDY 27 18 69 SE5 29.99F WCI 21  
GLENWOOD PTSUNNY 27 21 80 CALM 30.01S  
APPLETON CLOUDY 30 25 80 NW5 30.03S WCI 25  
BENSON CLOUDY 28 23 80 CALM 30.02F  
ORTONVILLE CLOUDY 27 19 74 W6 30.03S WCI 20  
MADISON CLOUDY 30 27 86 NW6 30.03S WCI 24  
WILLMAR CLOUDY 28 21 74 CALM 30.03S  

 
MNZ033>034-036-042>043-049>051-058-059-252100-  
CENTRAL MINNESOTA  
 
CITY SKY/WX TMP DP RH WIND PRES REMARKS
 
ST CLOUD MOSUNNY 26 15 63 NE6 30.03S WCI 19  
SAUK CENTRE CLOUDY 25 18 76 NE5 30.01F WCI 19  
PAYNESVILLE MOSUNNY 24 18 78 N6 30.03S WCI 17  
AITKIN PTSUNNY 27 16 63 CALM 30.02S  
PINE RIVER SUNNY 25 16 68 CALM 30.04F  
BRAINERD SUNNY 24 14 65 CALM 30.02F  
STAPLES PTSUNNY 27 16 63 CALM 30.01F  
LONG PRAIRIE CLOUDY 25 18 74 CALM 30.02S  
LITTLE FALLS SUNNY 27 14 59 CALM 30.03S  
LITCHFIELD SUNNY 27 19 74 CALM 30.03S  
BUFFALO SUNNY 26 16 65 NE7 30.04S WCI 18  
MAPLE LAKE SUNNY 28 19 69 NE5 30.03S WCI 22  

 
MNZ037-044-045-052-053-252100-  
EAST CENTRAL MINNESOTA  
 
CITY SKY/WX TMP DP RH WIND PRES REMARKS
 
PRINCETON MOSUNNY 27 16 63 NE5 30.03S WCI 21  
MORA PTSUNNY 27 16 63 CALM 30.05S  
CAMBRIDGE SUNNY 27 16 63 E3 30.02S  
RUSH CITY MOSUNNY 27 15 62 N6 30.04R WCI 20  
MOOSE LAKE CLOUDY 27 12 54 NE6 30.02R WCI 20  
HINCKLEY CLOUDY 28 16 59 E5 30.03S WCI 23  
CLOQUET FLURRIES 21 14 73 E8 30.03S WCI 12  
MCGREGOR CLOUDY 25 18 74 CALM 30.03S  

 
MNZ071>073-080-081-089-090-097-098-252100-  
SOUTHWEST MINNESOTA  
 
CITY SKY/WX TMP DP RH WIND PRES REMARKS
 
MONTEVIDEO CLOUDY 32 27 80 NE3 30.04S  
GRANITE FALLS CLOUDY 31 25 78 CALM 30.04S  
CANBY CLOUDY 28 26 89 CALM 30.04R  
MARSHALL CLOUDY 28 25 86 NW10 30.03S WCI 19  
REDWOOD FALLS CLOUDY 30 22 72 N6 30.02S WCI 24  
OLIVIA CLOUDY 28 25 86 N3 30.02S  
PIPESTONE CLOUDY 30 28 93 N7 29.99R FOG WCI 23  
WINDOM CLOUDY 28 25 86 N6 30.00S WCI 22  
WORTHINGTON CLOUDY 28 25 86 N8 30.00S WCI 20  
JACKSON CLOUDY 30 25 80 N7 29.99F WCI 23  
TRACY CLOUDY 30 28 92 N3 30.01S  
SLAYTON CLOUDY 29 28 97 CALM 30.00S FOG  

 
MNZ065>067-074>077-082>085-091>093-252100-  
SOUTH CENTRAL MINNESOTA  
 
CITY SKY/WX TMP DP RH WIND PRES REMARKS
 
MANKATO CLOUDY 25 18 74 N6 30.00F WCI 18  
NEW ULM MOSUNNY 27 19 74 N5 30.02S WCI 21  
ST JAMES CLOUDY 28 25 86 N7 30.02S WCI 21  
FAIRMONT CLOUDY 28 21 74 N8 29.99S WCI 20  
GLENCOE SUNNY 25 18 74 N6 30.02S WCI 18  
FARIBAULT CLOUDY 23 16 74 N6 30.01S WCI 16  
OWATONNA CLOUDY 25 18 74 N8 29.99S WCI 16  
WASECA CLOUDY 25 21 86 N7 30.01S WCI 17  
ALBERT LEA CLOUDY 27 25 93 NE8 29.98S WCI 18  

 
MNZ078>079-086>088-094>096-252100-  
SOUTHEAST MINNESOTA  
 
CITY SKY/WX TMP DP RH WIND PRES REMARKS
 
ROCHESTER CLOUDY 26 19 74 N8 29.97R WCI 18  
RED WING CLOUDY 25 14 63 NE6 30.02S WCI 18  
STANTON CLOUDY 25 17 71 N8 30.00S WCI 16  
DODGE CENTER CLOUDY 25 19 80 N8 29.98R WCI 16  
WINONA SUNNY 30 18 59 NE7 30.00S WCI 23  
AUSTIN CLOUDY 27 21 80 N7 29.97R WCI 19  
PRESTON PTSUNNY 26 19 75 N8 29.95S WCI 18  

 
ABBREVIATIONS USED IN REMARKS  
TC - TEMPERATURES IN CELSIUS  
WCI - WIND CHILL INDEX  
HX - HEAT INDEX  
VSB - VISIBILITY  

 
 
CLICK HERE TO GO TO PREVIOUS BULLETINS.

The Nexlab MN Page Main Text Page